Regional Weather Roundup
Issued by NWS

Home | Current Version | Previous Version | Graphics & Text | Print | Product List | Glossary On
Versions: 1 2 3 4 5 6 7 8 9 10 11 12 13 14 15 16 17 18 19 20 21 22 23 24 25 26 27 28 29 30 31 32 33 34 35 36 37 38 39 40 41 42 43 44 45 46 47 48 49 50
000
ASUS43 KOAX 232102
RWRNE

WEATHER ROUNDUP FOR NEBRASKA
NATIONAL WEATHER SERVICE OMAHA NE
400 PM CDT MON MAY 23 2016

NOTES: SATELLITE DATA IS BEING USED TO AUGMENT CLOUD COVER ABOVE
       12000 FEET.
       "FAIR" INDICATES FEW OR NO CLOUDS BELOW 12,000 FEET WITH NO
       SIGNIFICANT WEATHER AND/OR OBSTRUCTIONS TO VISIBILITY.

  * THESE STATIONS DO NOT REPORT WEATHER SUCH AS RAIN...SNOW OR FOG.

NEZ001>004-019>022-054>056-232200-
NEBRASKA PANHANDLE

CITY           SKY/WX    TMP DP  RH WIND       PRES   REMARKS
SCOTTSBLUFF    CLOUDY    67  33  28 SW16G22   29.82S
ALLIANCE       MOSUNNY   72  32  23 W15       29.79F
CHADRON        SUNNY     73  33  23 W12G18    29.77S
SIDNEY         SUNNY     73  36  25 S14G21    29.85F
$$

NEZ057>060-069>072-079>082-232200-
SOUTHWEST NEBRASKA

CITY           SKY/WX    TMP DP  RH WIND       PRES   REMARKS
NORTH PLATTE   SUNNY     76  41  28 VRB3      29.79F
IMPERIAL       SUNNY     74  35  24 VRB3      29.82F
LEXINGTON      SUNNY     76  53  44 CALM      29.78F
MCCOOK         SUNNY     78  50  37 CALM      29.79F
$$

NEZ005>010-023>029-035>040-094-232200-
NORTH CENTRAL NEBRASKA

CITY           SKY/WX    TMP DP  RH WIND       PRES   REMARKS
VALENTINE      SUNNY     77  31  18 SW9       29.74F
AINSWORTH      SUNNY     77  40  26 SW13G20   29.76S
BROKEN BOW     SUNNY     77  47  34 SW9       29.77F
ORD            SUNNY     77  57  50 W8        29.75F
$$

NEZ041-046>049-061>064-073>077-083>087-232200-
SOUTH CENTRAL NEBRASKA

CITY           SKY/WX    TMP DP  RH WIND       PRES   REMARKS
GRAND ISLAND   TSTM      70  65  84 CALM      29.79R
AURORA         CLOUDY    76  60  58 S12       29.77F
HASTINGS       PTSUNNY   71  66  84 VRB6      29.77F
KEARNEY *      CLOUDY    75  57  53 S6        29.77F
YORK           CLOUDY    75  59  57 S17       29.78S
$$

NEZ011>018-030>034-042>045-232200-
NORTHEAST NEBRASKA

CITY           SKY/WX    TMP DP  RH WIND       PRES   REMARKS
NORFOLK        CLOUDY    75  60  59 SW9       29.75R
ALBION         CLOUDY    77  56  48 SW6       29.76S
BLAIR          CLOUDY    74  65  73 SE16G22   29.79S
FREMONT        RAIN      73  63  71 SE9       29.78F
TEKAMAH        CLOUDY    78  62  57 S21G26    29.78R
$$

NEZ050>053-065>068-078-088>093-232200-
SOUTHEAST NEBRASKA

CITY           SKY/WX    TMP DP  RH WIND       PRES   REMARKS
LINCOLN        CLOUDY    78  66  66 S16       29.77F
OMAHA EPPLEY   CLOUDY    75  63  66 SE26G35   29.80R
BEATRICE       CLOUDY    76  65  70 S8        29.80S
FALLS CITY     CLOUDY    69  62  78 S20G25    29.85F
NEBRASKA CITY  CLOUDY    72  62  71 S17G25    29.83R
$$

NEZ044-045-051>053-067-232200-
OMAHA AREA

CITY           SKY/WX    TMP DP  RH WIND       PRES   REMARKS
OMAHA EPPLEY   CLOUDY    75  63  66 SE26G35   29.80R
BLAIR          CLOUDY    74  65  73 SE16G22   29.79S
FREMONT        RAIN      73  63  71 SE9       29.78F
OFFUTT AFB     MOSUNNY   73  64  73 SE22G29   29.80R
WAHOO          RAIN      71  68  89 S8        29.78S
$$



USA.gov is the U.S. government's official web portal to all federal, state and local government web resources and services.